This is the latest recevied weather packets stored in our database for station/object TA2LKM-11. If no packets are shown the sender has not sent any weather packets the latest 10 day(s).
| Time | Temp. | Humidity | Pressure | Rain* | Wind** | Luminosity | Snow |
|---|---|---|---|---|---|---|---|
| 1787924770 | 32.22° C | 36% | 1014.3 hPa | - | - | - | - |
| 1787923869 | 32.78° C | 36% | 1014.4 hPa | - | - | - | - |
| 1787922969 | 32.22° C | 37% | 1014.5 hPa | - | - | - | - |
| 1787922068 | 31.67° C | 36% | 1014.4 hPa | - | - | - | - |
| 1787921167 | 32.78° C | 35% | 1014.5 hPa | - | - | - | - |
| 1787920266 | 32.78° C | 35% | 1014.7 hPa | - | - | - | - |
| 1787919366 | 33.89° C | 34% | 1014.7 hPa | - | - | - | - |
| 1787918465 | 35° C | 33% | 1014.6 hPa | - | - | - | - |
| 1787917564 | 33.89° C | 35% | 1014.6 hPa | - | - | - | - |
| 1787916663 | 34.44° C | 33% | 1014.7 hPa | - | - | - | - |
| 1787915763 | 33.33° C | 35% | 1014.7 hPa | - | - | - | - |
| 1787914862 | 34.44° C | 35% | 1015 hPa | - | - | - | - |
| 1787913961 | 33.89° C | 36% | 1015 hPa | - | - | - | - |
| 1787913060 | 34.44° C | 32% | 1015.3 hPa | - | - | - | - |
| 1787912160 | 35.56° C | 37% | 1015.4 hPa | - | - | - | - |
| 1787911258 | 34.44° C | 37% | 1015.4 hPa | - | - | - | - |
| 1787910374 | 34.44° C | 37% | 1015.5 hPa | - | - | - | - |
| 1787909473 | 32.22° C | 40% | 1015.6 hPa | - | - | - | - |
| 1787908573 | 31.67° C | 45% | 1015.6 hPa | - | - | - | - |
| 1787907672 | 32.78° C | 42% | 1015.6 hPa | - | - | - | - |
| 1787906771 | 32.22° C | 44% | 1015.8 hPa | - | - | - | - |
| 1787905870 | 33.89° C | 36% | 1015.9 hPa | - | - | - | - |
| 1787904970 | 34.44° C | 36% | 1015.9 hPa | - | - | - | - |
| 1787904069 | 32.78° C | 41% | 1016.1 hPa | - | - | - | - |
| 1787903171 | 33.33° C | 41% | 1015.9 hPa | - | - | - | - |
* Rain since midnight (hover to see other rain measurements)
** Current wind speed in m/s (hover to see current wind gust speed)